GFSWCAN_925_rhum_024.txt.gz
RH
88 85 88 95 100 99 96 95 83 72 63 61 65 66 69 60 58 82 76 50 53 67 56 58 49 52 54 47 60 57 53 58 62 86 86 64 83 49 43 36 54 58 75 90 73 93 77 29 38 44 34 34 36 34
87 98 100 100 100 93 83 74 69 61 64 66 68 72 71 55 54 74 74 60 59 55 65 73 75 72 61 42 49 53 48 50 46 64 80 82 95 93 61 52 48 52 45 46 44 39 32 32 32 32 40 40 37 40
100 92 79 81 82 82 80 75 69 67 67 70 71 72 67 50 52 65 77 60 64 72 65 60 63 71 72 75 63 52 59 49 51 56 64 77 100 63 95 59 53 46 44 51 48 28 32 32 31 30 30 34 33 32
86 81 85 86 84 84 80 76 74 76 76 73 70 65 57 50 50 59 67 57 55 73 99 75 72 72 82 75 67 60 56 63 55 52 87 96 97 57 68 51 50 44 48 47 50 38 33 30 31 34 34 37 40 38
84 85 83 81 80 81 81 83 89 88 82 75 66 59 55 51 57 56 53 61 53 54 90 80 70 78 78 67 61 58 53 50 57 77 97 87 65 71 79 69 63 45 42 56 49 41 41 36 36 40 45 46 49 53
86 84 82 83 84 80 84 90 93 86 71 65 56 56 55 56 54 40 62 52 56 71 74 97 74 72 74 71 68 68 60 59 54 62 87 62 64 64 95 64 63 61 59 58 57 54 54 50 49 57 59 54 52 52
83 83 81 82 79 75 74 86 90 88 78 66 64 67 65 57 40 53 59 81 58 61 80 99 87 72 81 72 82 74 74 73 64 82 96 86 76 60 94 73 72 64 59 58 60 62 57 62 64 52 54 60 66 71
88 83 86 87 85 85 67 72 77 72 66 65 66 60 53 50 57 69 68 62 51 57 63 95 92 88 79 94 97 85 94 83 86 94 94 94 89 86 90 78 71 68 65 63 59 57 61 51 53 58 65 75 87 92
94 97 89 82 82 71 83 80 75 73 69 58 49 45 48 60 86 86 69 61 54 59 74 99 99 94 80 94 95 90 85 100 86 99 96 83 99 95 92 87 87 85 83 76 65 61 62 70 84 92 92 91 95 99
91 91 80 75 83 83 76 64 72 66 55 48 36 65 93 99 78 60 62 72 78 84 85 100 86 98 80 99 100 98 98 99 98 97 96 100 99 92 94 92 89 84 73 66 76 94 98 98 96 95 96 92 78 66
100 94 86 80 84 78 74 66 61 55 46 52 94 98 88 68 71 75 90 86 80 98 93 95 85 92 87 93 99 99 100 99 98 85 97 100 96 92 93 91 86 87 94 95 94 92 83 81 89 83 69 71 74 80
99 99 99 98 93 83 77 64 56 52 78 79 79 71 69 72 79 96 100 100 94 96 99 100 100 93 100 87 93 96 100 99 94 84 99 98 96 97 95 89 81 78 74 70 66 65 65 65 67 71 70 67 69 78
99 99 99 98 92 82 77 76 65 69 68 66 75 96 82 98 100 100 100 100 100 100 100 100 100 100 95 91 100 100 99 100 84 98 97 94 100 100 96 74 65 62 63 60 56 56 57 61 69 73 79 77 80 74
92 95 96 98 93 82 75 69 70 68 66 89 100 100 100 99 96 100 100 100 100 100 100 100 100 100 100 100 100 100 100 99 100 99 96 100 100 98 85 77 64 59 82 61 58 61 70 72 73 79 81 83 85 86
64 74 81 88 92 90 86 68 65 66 86 93 89 100 100 100 100 100 100 99 100 99 100 100 100 93 100 100 100 99 100 96 87 84 89 98 98 98 100 73 65 62 80 72 67 72 84 84 83 83 90 87 90 92
52 53 64 67 62 60 69 66 57 78 96 99 100 100 100 100 100 100 100 100 99 100 100 100 100 100 100 100 100 99 95 87 91 96 100 100 99 99 77 62 70 76 71 67 72 77 89 92 89 85 89 85 87 92
42 70 61 59 57 53 49 53 63 81 91 100 100 100 100 100 100 100 100 100 99 100 100 100 100 99 93 92 94 85 93 89 97 100 98 92 95 95 87 89 82 72 73 79 81 82 84 86 84 72 62 61 65 68
79 66 53 49 46 48 60 62 79 81 94 94 94 100 100 100 100 100 100 96 90 88 88 95 80 96 96 93 89 89 94 96 98 98 100 100 97 99 91 66 72 80 85 89 86 77 74 71 64 62 60 62 60 61
54 58 50 46 46 60 77 82 73 90 98 97 99 99 99 100 96 95 99 99 90 81 82 79 93 80 88 80 88 94 96 95 98 96 92 96 96 81 79 85 91 89 79 72 68 66 67 69 68 65 66 64 65 64
30 37 46 52 49 69 85 83 68 76 87 95 93 93 93 93 96 100 100 94 80 81 86 86 87 88 82 78 77 84 85 76 78 86 90 86 81 80 80 79 76 69 68 70 70 70 65 65 66 67 72 74 76 77
23 34 43 50 71 86 85 84 80 83 81 85 86 82 86 90 92 97 96 89 94 92 90 92 96 90 88 84 81 80 83 78 78 79 80 84 79 74 76 75 68 68 70 76 73 72 76 71 70 74 82 86 89 89
55 52 51 57 85 90 85 90 90 79 70 81 82 76 87 85 93 95 89 92 89 90 90 90 92 91 84 83 81 86 85 84 88 88 87 88 86 85 74 71 72 77 75 76 74 78 76 74 82 85 89 92 91 88
58 55 63 69 86 88 93 79 91 84 80 92 86 88 87 87 88 80 86 84 89 88 94 90 93 97 94 96 94 88 84 79 82 87 87 85 82 82 78 79 80 78 72 68 72 73 80 88 87 94 93 92 90 90
57 82 87 86 82 97 88 88 76 77 87 94 92 92 90 89 83 78 82 86 81 80 83 90 89 87 91 92 89 92 95 96 93 93 95 91 89 90 85 82 84 84 81 81 84 90 90 94 95 94 96 94 92 91
82 95 81 90 85 87 93 94 79 72 80 93 93 92 90 85 85 84 84 79 80 86 86 90 90 90 88 90 92 94 98 96 92 90 94 92 87 77 70 72 83 86 93 90 90 92 92 95 96 96 95 94 95 93
95 93 88 90 88 87 94 96 94 88 90 90 91 86 89 86 84 87 78 83 85 86 90 91 91 88 87 91 88 90 95 98 97 91 91 85 77 74 72 71 69 80 98 100 100 97 93 93 95 98 95 93 94 95
96 95 87 80 85 86 90 89 85 87 88 88 87 87 86 87 88 82 77 82 80 92 96 98 94 90 89 92 96 99 100 100 98 95 92 91 93 93 92 88 86 94 100 100 100 100 100 99 100 100 97 94 95 99
84 84 97 95 91 89 92 90 89 88 87 83 86 90 90 89 86 81 81 92 96 97 98 100 100 100 98 99 100 99 100 99 80 89 100 100 100 100 100 100 100 81 84 96 96 100 100 100 100 100 98 99 100 100
88 89 88 94 92 87 89 87 85 84 84 85 89 88 87 80 86 86 91 98 100 96 92 92 98 100 100 92 89 94 99 93 74 69 69 73 78 88 100 100 100 100 100 100 100 100 100 100 100 100 100 100 100 100
92 93 86 94 97 90 91 92 89 91 85 86 80 79 78 85 94 100 97 97 94 96 100 100 100 99 98 90 93 99 100 99 99 91 80 80 87 100 100 100 100 100 100 100 100 100 100 100 100 100 100 100 100 100
89 88 88 90 93 88 92 94 96 92 89 87 88 87 85 84 94 100 100 100 98 100 96 93 96 100 93 91 85 81 84 98 83 90 95 99 100 100 100 100 100 100 100 100 100 100 100 100 100 100 100 100 100 100
87 97 96 92 88 90 88 92 92 87 87 87 90 86 88 85 88 87 99 100 94 89 86 94 92 97 88 79 77 80 82 84 99 91 95 99 100 100 100 100 100 100 100 100 100 100 100 100 100 100 100 100 100 100
92 90 88 89 90 90 91 87 86 88 88 88 90 88 88 86 90 90 98 96 99 100 100 96 82 81 79 79 81 82 82 80 81 88 92 96 100 100 100 100 100 100 100 100 100 100 100 100 100 100 100 100 100 100

GFSWCAN_925_rhum_030.txt.gz
RH
86 85 84 85 91 88 77 71 70 71 76 87 98 93 78 77 70 88 95 96 99 90 37 31 24 28 31 42 67 52 52 49 64 81 85 70 87 56 42 32 62 72 84 94 79 96 89 20 25 36 41 32 30 30
83 76 72 68 72 76 78 76 77 88 88 93 95 92 93 76 71 97 92 76 90 97 60 58 57 49 42 33 48 53 42 46 49 55 76 84 92 93 68 59 25 50 45 62 58 62 32 21 25 22 27 30 31 34
88 88 88 87 86 79 84 97 94 87 84 86 100 91 77 88 99 96 89 90 98 68 57 48 55 59 57 59 46 56 49 36 41 40 68 78 93 73 94 70 48 31 31 48 44 23 22 22 21 22 29 37 35 36
74 72 73 73 78 87 90 88 84 81 99 96 85 88 99 99 91 83 96 92 81 60 98 75 58 58 58 53 49 52 41 47 53 60 90 98 97 48 80 51 53 39 36 35 36 30 29 29 40 44 44 45 46 44
86 86 89 87 85 90 93 96 98 99 100 99 100 100 94 81 74 90 83 95 75 43 86 78 57 57 53 51 48 48 49 53 61 80 96 90 61 77 75 64 68 34 36 64 64 48 50 51 48 45 49 49 48 48
96 98 99 100 100 99 100 100 100 99 100 93 86 76 75 72 73 98 91 65 69 54 78 95 62 57 49 46 44 48 48 48 48 69 88 58 50 68 98 80 44 45 44 46 50 49 49 50 48 53 65 63 60 60
100 100 99 88 79 82 86 89 84 81 81 80 78 76 70 69 81 93 72 80 62 58 81 99 92 64 52 53 59 52 46 49 49 64 84 71 59 63 99 82 53 49 47 48 47 50 57 49 60 58 64 67 69 70
100 100 100 100 98 94 89 87 87 83 78 77 74 73 76 79 92 76 67 62 62 47 67 97 100 87 62 81 88 68 76 65 70 78 76 86 76 90 87 60 54 52 52 51 48 46 56 60 61 62 63 63 66 70
85 93 100 100 100 100 100 97 86 78 77 75 77 83 88 71 80 70 57 66 52 64 84 100 97 100 63 83 91 84 70 97 74 93 80 77 90 89 69 63 60 59 58 61 61 61 63 67 66 63 61 62 68 68
83 73 77 72 94 100 100 100 100 95 87 80 79 57 98 87 65 71 68 68 79 76 75 98 81 99 76 98 100 95 97 96 93 95 75 100 97 77 70 64 62 62 58 68 82 84 74 70 66 59 54 58 65 65
78 79 75 71 61 64 73 89 89 80 75 63 82 95 91 70 68 72 94 87 77 93 77 83 75 91 80 96 99 97 96 97 94 88 91 98 88 88 75 72 70 67 63 67 68 64 63 59 58 67 64 59 61 68
70 73 79 78 70 65 56 53 57 64 80 69 73 77 76 82 91 97 100 100 98 97 95 97 90 80 92 68 83 92 92 85 96 77 99 93 93 84 79 76 68 62 61 61 59 60 57 56 54 52 57 68 74 86
79 73 81 79 73 70 64 58 65 66 60 57 76 96 90 99 100 100 100 100 99 98 99 98 100 98 91 77 99 86 89 98 73 99 82 93 93 85 78 67 62 56 56 55 54 54 55 68 73 73 86 88 77 85
79 75 77 80 76 73 69 62 52 54 66 90 100 100 100 100 100 100 100 100 100 100 100 100 100 100 100 100 100 98 100 89 100 98 90 99 96 88 75 64 59 58 77 52 52 63 75 84 93 87 88 87 81 79
80 74 65 62 66 66 66 68 55 57 77 89 91 100 100 100 100 100 100 100 99 98 100 94 97 91 100 100 100 97 100 97 93 95 99 98 96 90 72 62 66 78 90 69 67 88 89 85 80 79 72 77 83 79
61 66 65 57 49 56 62 65 67 84 93 97 98 99 100 99 99 99 100 100 99 100 100 95 100 100 100 100 94 100 94 94 99 97 97 97 98 93 77 67 67 64 66 71 80 86 87 80 75 71 64 62 76 61
57 78 53 46 45 48 52 63 78 86 98 100 100 100 100 100 100 100 100 99 100 100 100 100 100 100 89 97 96 100 100 100 96 99 98 97 96 97 80 83 77 69 67 72 75 76 76 70 59 55 53 53 50 53
78 71 43 40 61 51 66 70 87 91 99 99 98 100 100 100 100 100 100 98 99 100 99 100 99 100 100 99 100 100 100 99 98 98 98 96 92 83 77 79 70 69 73 74 71 66 64 57 53 54 52 49 48 54
69 62 46 48 56 67 72 73 68 95 100 100 100 98 98 96 90 93 100 95 78 80 94 99 96 95 98 98 99 100 99 98 99 100 98 100 99 99 90 84 80 77 74 68 62 61 60 58 56 55 58 57 63 66
41 44 57 56 54 64 74 73 59 79 93 98 92 86 82 83 92 99 100 90 76 77 83 92 95 96 97 97 98 99 99 90 95 97 99 99 99 94 96 95 76 67 65 65 66 60 58 61 57 60 72 73 76 78
26 44 58 69 65 70 75 71 69 70 70 79 72 70 77 85 93 99 95 78 84 93 92 94 97 95 93 87 98 99 98 99 100 98 86 96 96 92 86 78 85 90 91 92 76 72 70 66 68 72 81 85 88 86
62 62 74 62 83 85 75 74 70 59 70 72 71 65 81 95 94 93 77 80 80 89 91 88 88 84 82 86 91 99 100 98 99 98 99 96 94 95 95 97 93 93 93 91 82 80 76 74 84 86 87 89 82 81
65 69 84 86 91 90 89 61 79 65 72 74 67 67 74 78 75 64 84 77 86 84 93 93 85 84 89 91 89 93 96 95 93 94 96 96 96 97 97 97 98 96 90 74 69 75 82 83 86 88 88 83 81 82
52 96 96 92 87 92 90 75 56 62 68 73 75 76 82 80 71 68 83 85 84 73 78 79 81 93 73 74 78 85 95 97 93 94 96 93 91 94 96 96 96 90 81 79 83 86 85 88 85 85 86 83 81 83
84 90 94 84 88 79 76 72 71 65 76 76 82 83 82 72 75 76 83 89 84 85 82 87 74 78 84 84 85 88 96 92 91 89 97 97 95 95 87 79 80 84 87 87 86 85 84 84 85 86 82 82 82 81
88 87 78 76 77 76 70 73 73 78 70 78 77 78 83 79 77 88 83 89 89 88 91 90 88 79 76 80 78 83 89 98 89 86 87 84 84 80 71 69 77 90 93 94 93 88 85 85 85 84 84 82 82 90
83 84 74 66 71 72 77 72 70 74 78 83 85 83 77 84 87 87 78 81 82 92 91 92 84 80 81 85 89 93 89 89 82 77 78 82 87 88 90 87 87 97 95 97 97 98 94 92 90 90 89 89 93 96
78 81 83 80 75 73 72 72 79 88 86 72 75 85 88 90 89 87 86 90 92 86 85 90 90 90 91 93 94 93 91 93 84 88 94 90 89 95 95 96 98 96 100 100 98 99 97 97 97 95 96 96 93 91
81 82 71 92 70 70 79 85 87 86 74 73 86 89 87 79 88 90 89 94 98 97 92 91 95 98 96 89 92 92 93 90 75 73 69 73 73 93 92 92 94 95 97 96 94 94 97 97 98 97 95 95 94 93
78 74 70 74 79 79 93 91 91 89 77 78 72 72 77 86 93 97 94 92 90 92 95 95 94 86 85 84 79 92 99 99 96 90 82 83 86 92 91 96 98 97 98 98 96 96 92 97 93 91 96 97 95 99
69 69 68 68 77 90 91 85 89 84 82 84 83 84 83 84 91 94 94 97 91 94 94 90 85 88 85 87 87 84 87 100 97 98 98 100 98 97 99 99 98 99 97 98 98 97 95 94 94 94 94 94 94 95
71 78 76 72 88 85 73 82 81 89 89 87 84 80 84 88 85 85 97 98 92 86 90 90 89 92 99 100 97 96 96 98 98 100 100 100 100 100 100 100 98 98 100 99 97 97 96 96 94 94 94 96 99 98
67 67 67 66 67 78 82 76 69 81 77 81 80 81 84 85 87 87 98 98 96 96 97 98 99 100 99 99 96 98 90 95 99 96 100 100 100 100 100 100 100 100 100 100 99 97 96 95 95 96 96 97 97 100

GFSWCAN_925_rhum_036.txt.gz
RH
86 84 86 87 89 90 90 93 90 90 85 89 92 88 86 88 86 100 90 97 92 98 92 93 53 53 46 54 82 79 80 79 91 87 87 88 79 68 75 64 68 65 86 90 95 90 63 46 30 38 47 48 49 51
82 84 87 88 87 90 89 87 97 98 85 89 88 90 82 92 84 99 90 98 98 97 93 93 79 75 74 42 80 83 60 71 82 84 95 95 89 90 74 86 61 62 64 75 73 73 52 40 39 47 51 59 61 73
86 89 86 82 83 82 92 95 95 98 93 95 97 86 86 97 94 91 81 97 88 92 90 96 87 64 64 49 36 77 80 66 78 76 94 95 74 86 82 82 63 49 62 69 62 65 71 74 67 67 68 68 64 64
85 84 77 80 82 84 87 78 80 92 95 90 90 95 88 84 86 86 85 88 74 94 100 92 73 68 61 60 39 36 58 67 82 86 99 100 87 73 86 64 64 62 54 57 77 75 70 71 70 66 67 65 66 65
70 67 67 78 82 79 77 73 74 74 89 87 76 75 71 86 93 94 87 85 90 99 100 97 76 64 67 58 62 48 65 78 84 81 94 85 88 86 87 77 69 56 57 67 73 66 74 79 75 69 71 72 69 73
76 76 71 67 72 76 75 75 78 88 82 82 84 89 93 90 87 86 94 84 77 91 100 100 91 88 74 82 93 75 85 88 87 82 99 88 77 78 84 87 65 67 68 65 79 71 77 78 74 70 77 76 75 78
84 80 79 78 76 80 78 79 82 96 97 99 95 94 93 91 91 84 87 81 66 87 98 100 98 95 85 89 96 95 93 98 95 95 96 84 84 90 97 88 72 69 70 73 71 72 83 76 87 78 80 81 82 84
80 89 91 86 79 80 80 91 91 92 87 83 84 84 86 98 84 90 88 100 99 92 96 100 99 100 83 98 99 97 97 97 98 97 96 93 96 96 92 78 73 76 76 75 77 73 76 75 75 79 78 76 82 88
80 76 73 76 82 94 86 86 82 80 80 83 90 83 95 100 94 76 78 100 95 95 99 100 100 100 88 98 98 94 95 100 95 100 99 89 98 99 87 79 76 75 76 82 76 75 76 80 81 80 78 78 86 88
100 98 92 86 83 87 85 86 84 83 85 100 100 98 100 98 92 71 92 99 99 97 92 100 97 100 91 99 99 100 100 100 98 98 93 100 99 86 92 90 81 77 74 75 88 92 86 86 85 79 80 81 82 87
100 100 99 92 89 92 98 98 97 100 100 98 99 100 100 88 93 99 99 98 96 99 97 98 97 99 96 99 100 100 100 99 97 95 95 100 99 93 88 90 88 79 74 76 71 74 71 74 78 83 85 88 96 98
100 100 100 99 92 88 88 88 94 97 94 93 94 94 94 95 96 94 99 96 97 100 98 100 100 97 99 90 99 98 96 94 98 92 96 98 99 94 91 90 85 78 71 70 69 73 71 72 76 81 91 98 97 98
100 100 100 100 99 99 97 90 99 82 86 77 91 96 87 97 96 93 99 98 98 100 100 100 100 100 95 93 100 95 95 96 93 92 91 99 97 90 85 79 74 72 75 75 77 79 84 89 91 91 92 95 98 90
98 100 100 100 94 95 100 98 82 72 64 95 93 98 98 99 99 100 100 99 99 100 100 100 100 100 100 100 100 93 100 95 99 100 95 99 96 91 80 76 76 80 84 84 84 88 93 96 98 95 83 75 80 83
72 80 84 90 93 93 77 60 50 53 92 98 95 98 98 100 99 99 100 100 99 100 100 100 100 97 100 99 98 98 98 91 97 97 99 99 95 86 83 78 82 85 87 88 86 90 92 87 85 88 78 73 74 65
66 60 72 68 62 57 56 47 55 74 97 95 98 98 99 98 98 98 98 99 99 100 100 99 100 96 99 98 98 98 86 98 99 99 100 96 88 82 79 81 82 83 85 88 90 86 86 84 78 77 60 59 70 65
46 64 62 65 58 59 57 67 79 98 94 97 99 100 99 99 99 99 100 99 99 100 100 99 96 99 99 98 98 99 98 99 99 99 99 95 89 93 96 96 97 98 98 99 98 87 81 76 76 76 71 64 69 69
70 58 43 40 48 50 66 81 93 93 99 99 99 99 99 99 99 99 99 98 99 99 99 99 98 96 96 96 97 98 99 99 100 100 99 98 98 99 98 97 98 99 99 92 85 82 74 74 66 72 79 73 70 84
63 59 40 37 38 56 85 87 83 98 99 100 99 99 100 98 97 94 97 98 97 93 97 97 95 96 96 96 97 96 98 99 99 99 99 99 99 99 99 100 100 100 99 86 79 80 78 74 75 75 79 76 85 86
34 46 54 49 43 74 84 91 77 96 98 99 99 97 98 98 95 81 78 79 82 86 91 95 96 96 96 96 96 97 97 99 99 98 98 99 100 100 99 98 98 98 95 86 78 78 83 89 90 86 83 75 76 97
23 35 38 57 63 71 94 95 96 98 99 98 98 96 97 88 76 81 87 78 77 95 94 96 96 96 96 96 97 97 95 95 94 99 99 97 98 98 97 98 98 97 95 95 94 96 96 96 96 94 82 80 87 96
43 45 44 47 79 77 85 78 92 92 89 95 91 93 95 97 98 95 89 88 94 95 96 95 92 87 86 90 94 97 98 94 96 95 96 92 93 94 94 96 95 95 96 96 96 96 96 96 86 94 90 80 81 96
41 50 65 65 82 80 83 72 80 80 88 90 88 88 94 96 98 89 95 89 94 94 96 86 85 86 88 89 89 93 97 92 93 95 95 96 96 96 96 97 97 95 95 97 95 95 96 92 91 92 85 75 85 88
55 81 94 96 89 99 87 86 85 64 78 84 90 85 90 98 93 92 97 97 92 88 89 91 86 82 79 83 89 94 98 93 94 96 97 95 93 96 97 97 96 96 96 96 93 91 92 93 89 83 78 84 90 89
80 90 83 86 87 81 86 86 87 90 92 94 93 91 86 93 94 98 97 96 94 95 94 94 86 89 91 92 92 96 97 92 95 94 99 97 98 97 97 96 93 91 79 77 91 92 92 90 90 91 91 91 98 99
88 95 83 76 79 81 85 90 88 93 95 91 90 91 95 92 94 98 94 96 98 96 97 97 96 92 92 92 89 94 97 92 82 92 98 90 93 94 97 96 86 91 95 83 76 79 88 86 89 86 83 96 99 95
82 96 90 91 94 90 92 92 91 94 100 100 100 98 94 98 99 96 95 96 95 97 96 96 97 96 96 98 97 93 83 79 80 91 89 84 82 81 75 80 88 94 95 96 93 91 94 99 97 98 92 86 86 92
90 87 89 83 84 90 81 92 99 98 100 95 94 99 97 98 97 96 95 97 96 93 88 86 88 87 77 62 66 76 94 97 95 92 91 90 86 83 99 100 100 100 97 97 99 100 97 100 100 99 95 92 96 90
84 92 88 93 94 96 98 97 98 98 92 95 97 98 98 92 96 96 96 96 95 86 94 97 100 93 90 85 80 72 53 53 65 98 100 100 90 84 95 99 100 100 100 100 97 89 87 95 91 89 92 98 96 94
84 93 92 96 99 100 96 98 100 98 92 92 87 85 89 96 97 96 93 94 93 99 98 96 96 90 97 95 96 96 96 89 89 88 98 98 100 99 98 94 88 97 100 100 100 100 100 98 92 91 90 94 99 95
90 92 92 98 99 97 97 96 90 81 92 98 92 97 99 98 97 96 97 97 96 88 87 89 87 86 88 89 87 90 91 100 100 100 100 100 100 98 99 90 92 96 98 97 96 97 100 100 98 96 96 98 100 100
95 93 97 99 97 94 95 98 97 97 98 99 100 100 100 98 100 98 97 91 88 95 100 100 100 100 95 94 95 100 100 100 100 96 100 100 100 100 100 100 97 99 99 95 96 99 100 100 100 100 100 100 100 100
94 94 97 96 96 96 98 94 96 96 97 98 98 99 99 96 99 98 100 97 93 91 86 91 97 95 99 99 99 100 97 83 75 86 100 100 100 98 100 100 100 100 100 100 99 100 100 100 100 96 98 100 100 100

GFSWCAN_925_rhum_042.txt.gz
RH
88 91 84 84 83 90 100 100 99 98 98 96 95 74 80 90 97 85 75 94 96 97 89 89 86 73 63 62 75 70 67 74 91 84 90 87 90 80 76 64 74 75 85 87 86 81 71 44 38 41 45 50 52 52
100 99 100 100 100 98 97 98 99 98 97 92 96 86 91 96 94 89 82 92 96 98 96 86 80 72 68 67 58 72 66 79 69 86 94 92 87 94 74 78 60 63 67 75 71 71 53 50 39 39 50 55 54 58
96 98 98 99 99 99 99 99 99 98 98 98 92 94 96 86 87 85 77 92 98 98 90 86 80 79 74 66 59 66 83 74 78 76 89 92 84 86 84 79 70 59 60 65 60 58 63 66 67 66 61 61 69 73
91 93 94 95 96 96 95 96 97 95 93 87 84 89 83 78 82 87 83 97 91 96 100 87 67 81 74 82 73 69 58 86 89 90 96 97 90 82 87 68 67 66 64 75 71 79 72 72 74 71 78 78 76 74
84 88 87 88 89 90 90 86 84 85 89 91 85 80 76 75 85 91 83 72 96 94 96 95 78 71 71 89 96 87 76 84 91 94 99 86 89 87 91 82 75 71 68 72 63 60 58 62 79 76 79 81 79 80
87 90 89 91 86 85 85 80 76 78 76 79 78 86 93 84 93 86 96 91 91 97 98 99 86 86 80 93 97 98 83 89 88 85 95 92 85 82 93 86 56 62 67 60 49 69 82 83 81 75 82 83 82 83
94 88 86 88 93 96 99 98 87 83 85 81 82 80 80 86 89 86 92 84 88 91 94 99 98 80 94 96 99 98 93 96 92 94 96 91 92 80 94 79 62 82 82 80 77 75 86 76 86 81 82 83 83 85
86 83 77 79 86 93 98 94 93 90 96 94 89 83 78 86 82 89 78 83 81 87 92 100 98 98 91 99 100 98 100 95 96 99 96 96 97 96 86 77 90 84 81 83 84 80 77 84 84 88 85 85 91 96
83 80 75 84 95 88 92 92 94 93 99 97 93 90 98 86 90 68 62 83 76 78 98 100 100 97 91 98 99 97 96 100 98 100 100 93 100 88 82 89 92 85 80 92 86 85 84 90 92 90 90 91 94 95
71 73 76 82 91 89 90 94 94 96 92 95 96 90 99 84 88 90 100 98 95 97 99 100 97 100 94 99 100 100 100 100 100 99 96 100 98 91 90 88 89 86 83 82 95 98 94 95 94 91 87 84 86 91
70 70 70 76 88 88 91 91 94 93 92 86 97 100 91 83 79 96 100 100 99 99 99 97 98 99 94 96 100 99 100 100 100 99 94 100 99 96 96 93 86 84 80 82 80 80 79 83 88 90 93 95 97 96
76 75 71 66 74 84 91 91 97 88 82 88 95 79 87 89 97 97 99 99 98 99 99 100 100 96 100 95 98 100 100 100 100 97 100 100 99 99 98 97 92 89 85 84 81 82 81 83 83 88 94 97 97 97
86 75 75 88 88 83 81 92 92 100 86 95 93 96 89 99 99 97 98 100 99 100 100 100 100 99 98 94 100 100 100 99 98 99 99 100 99 99 95 89 87 81 82 84 86 88 94 97 99 97 97 99 94 89
84 83 82 85 83 84 82 84 84 97 92 98 100 98 97 97 98 99 100 100 100 99 100 100 100 100 100 99 99 98 100 96 97 96 99 99 100 97 91 87 86 92 93 93 95 96 97 96 97 98 97 92 85 85
88 88 87 92 90 89 90 89 96 96 98 99 95 99 97 100 100 100 100 100 99 100 100 100 99 98 99 98 99 99 96 98 98 98 99 100 99 96 97 96 95 97 98 97 93 93 96 96 91 86 79 78 84 81
100 99 99 95 98 99 91 99 94 96 93 97 98 98 99 98 97 98 98 98 98 99 99 95 97 99 99 99 94 97 92 96 98 98 99 99 99 99 99 98 97 97 97 97 97 97 97 89 83 80 74 70 71 70
78 98 98 90 98 99 96 90 84 92 98 93 98 97 98 98 97 98 98 98 98 100 99 97 94 97 92 96 94 95 97 97 97 98 99 100 99 99 98 98 98 98 97 97 97 95 91 94 82 73 72 75 72 70
98 100 100 95 95 93 92 95 89 89 98 98 97 97 96 96 93 93 96 96 98 98 95 98 89 94 96 95 95 95 95 95 98 99 99 99 100 99 99 98 98 98 98 98 98 98 97 97 92 82 76 83 85 89
90 93 87 84 86 82 89 89 83 96 97 98 95 91 95 90 81 86 90 94 87 85 90 92 91 94 95 95 95 95 95 95 97 97 96 97 99 99 99 99 99 98 98 98 97 96 97 95 88 90 91 91 98 86
56 64 77 86 85 84 85 93 77 92 98 95 85 73 79 80 79 76 72 70 72 79 87 92 95 95 95 95 95 95 95 95 96 95 94 93 96 95 96 96 96 97 96 97 97 97 96 96 96 95 94 96 95 96
34 40 43 43 53 72 92 96 98 99 98 97 99 96 93 75 74 77 78 69 72 90 91 94 95 94 95 95 95 95 93 92 93 93 94 92 95 95 95 96 96 96 94 95 94 96 96 96 97 96 95 95 96 96
48 39 35 38 74 78 85 82 93 94 88 95 92 93 98 98 98 97 79 85 92 94 92 91 91 90 87 88 93 96 96 94 95 94 94 93 91 91 93 95 93 94 94 96 96 96 97 97 96 95 95 95 96 95
50 50 59 65 79 79 85 73 81 83 88 95 90 93 98 98 99 80 96 82 91 92 95 93 91 87 86 88 88 92 90 86 90 92 94 95 96 97 96 98 98 95 94 97 96 96 96 96 96 94 92 87 88 90
46 76 90 88 81 90 88 91 88 90 92 93 95 99 96 100 90 92 98 96 91 89 86 84 83 78 77 82 89 94 97 90 92 96 95 90 92 99 98 95 91 83 90 92 89 90 90 89 84 83 85 89 91 95
81 91 82 85 88 82 89 94 96 92 100 100 94 96 98 91 97 100 96 96 94 95 94 93 88 89 92 92 93 97 96 94 94 94 99 98 95 92 95 99 97 93 82 76 81 82 86 85 86 90 90 95 96 95
96 97 90 95 95 90 98 99 99 100 98 98 97 95 91 92 94 100 93 97 98 96 97 97 96 92 93 98 96 99 99 84 85 97 100 90 87 89 96 100 100 100 100 100 97 95 94 94 96 95 87 90 89 94
97 96 88 81 96 89 96 97 94 96 96 94 98 98 92 100 100 96 94 96 94 98 93 82 88 96 98 99 100 96 83 76 80 95 95 93 98 100 98 100 100 100 100 100 100 100 100 100 100 100 98 97 94 100
100 89 91 95 98 94 100 100 98 98 98 96 86 100 100 100 99 97 96 97 94 75 72 71 68 83 97 99 100 98 92 91 94 87 72 81 83 85 85 82 81 83 88 99 100 100 100 100 100 100 100 100 99 99
100 98 91 100 95 97 98 99 94 88 90 95 100 100 100 91 98 97 96 97 97 93 96 96 99 88 78 74 72 72 68 71 60 97 100 100 98 99 100 97 94 92 87 86 86 87 94 100 100 100 100 100 100 100
94 96 100 100 94 93 100 99 100 100 93 95 86 85 90 97 97 98 97 94 91 96 96 89 85 77 85 82 93 93 93 93 94 94 100 100 100 100 100 99 97 96 97 95 94 91 86 86 85 88 89 89 91 95
97 96 97 98 100 98 100 92 77 83 94 98 95 100 99 99 98 98 96 96 94 94 90 94 95 95 92 91 92 92 95 98 98 91 92 98 99 97 96 96 97 95 98 100 100 100 99 99 97 95 90 91 94 99
100 100 100 100 98 97 97 97 100 100 100 100 100 100 100 99 100 100 98 98 88 88 96 99 100 100 100 100 99 94 88 81 83 90 98 99 99 98 95 94 94 93 93 96 100 100 100 100 100 98 98 96 98 100
98 100 99 100 98 97 96 95 97 98 100 100 100 100 100 97 99 98 100 100 95 88 79 79 94 100 100 98 88 83 83 88 87 92 99 100 100 96 90 86 90 89 88 94 97 96 96 97 98 98 97 98 98 98

GFSWCAN_925_rhum_045.txt.gz
RH
85 81 83 92 91 94 96 91 95 80 100 100 100 97 95 95 93 78 100 84 91 97 90 87 87 73 62 57 68 74 69 72 94 84 89 85 88 74 71 64 74 69 76 80 75 77 60 44 37 42 44 43 46 49
100 88 86 89 87 85 90 87 88 100 100 100 93 96 96 92 89 83 86 98 93 97 96 93 88 81 72 46 58 64 62 67 68 84 90 89 88 94 72 66 61 73 63 65 57 60 51 44 40 40 42 41 50 51
97 95 100 97 90 90 96 100 100 100 96 99 100 99 100 94 97 89 91 94 97 99 86 85 90 78 72 70 45 74 81 72 78 78 88 87 83 82 90 80 67 64 61 66 59 53 52 54 53 58 51 49 50 49
91 98 98 94 96 97 97 94 92 98 99 100 99 98 99 99 94 83 91 91 73 93 97 82 76 72 61 69 71 61 64 84 86 84 89 95 89 74 82 64 70 65 65 69 62 58 69 61 64 58 63 68 66 62
85 88 89 98 98 100 100 100 100 100 100 98 98 95 94 97 86 74 79 86 64 85 99 94 77 72 71 70 93 77 79 87 91 94 99 90 83 83 90 81 82 64 62 69 64 49 50 41 53 67 70 69 65 67
81 79 80 87 89 96 99 99 100 100 98 98 97 94 84 78 72 75 92 86 82 73 97 98 84 81 85 93 99 96 91 88 89 87 94 86 82 83 90 83 54 59 68 68 49 65 74 78 73 68 71 73 71 69
91 91 89 82 82 87 93 96 96 96 89 77 77 68 63 90 81 86 90 79 78 78 99 99 94 83 82 92 96 99 91 93 87 88 96 87 90 82 93 79 52 72 72 76 73 69 72 72 72 74 75 78 78 77
84 83 84 94 86 80 80 84 85 85 78 70 64 65 72 89 78 88 94 84 74 91 95 100 96 98 92 100 100 97 99 94 95 92 95 96 94 92 89 68 77 78 76 78 79 75 73 78 78 82 78 78 84 86
81 92 92 95 96 91 86 81 83 83 72 74 77 85 97 97 94 79 92 92 82 93 100 100 100 98 93 100 99 98 97 100 97 99 97 92 100 93 77 77 84 82 78 86 85 80 78 80 84 84 82 83 90 90
84 96 90 97 99 100 91 85 79 73 75 87 92 85 98 76 68 72 98 98 99 94 99 100 96 98 91 100 100 99 100 100 100 98 97 100 100 89 88 86 82 83 81 80 95 97 94 93 89 88 87 84 86 85
81 92 98 98 92 100 100 89 83 87 93 83 98 100 83 68 73 94 96 99 99 100 99 97 96 99 95 95 100 99 100 100 100 99 97 100 99 94 93 91 84 81 78 82 79 82 81 84 87 90 92 91 92 92
80 91 99 99 98 100 99 100 95 85 88 92 88 79 91 93 96 96 99 99 100 98 100 100 99 95 100 92 96 100 100 100 100 98 100 100 100 98 96 96 93 90 90 91 86 90 89 85 85 88 92 94 96 98
88 81 80 88 97 100 96 96 98 90 91 88 89 92 88 99 98 98 97 99 99 99 100 100 100 99 98 94 100 100 100 100 100 99 97 99 100 98 96 91 93 89 88 88 90 88 89 91 92 92 97 99 98 98
80 74 71 71 71 77 94 100 95 95 91 99 98 98 98 96 97 98 99 100 100 100 100 100 100 100 100 99 100 99 100 99 96 96 97 98 99 100 97 93 92 97 96 95 96 95 97 97 97 99 98 99 98 96
87 81 81 81 85 86 84 89 97 96 99 99 89 97 98 100 99 100 100 100 100 100 100 100 100 99 100 100 100 97 93 95 94 96 98 98 100 100 100 100 98 98 98 97 97 96 97 97 96 96 97 92 90 88
86 90 86 82 86 97 95 84 94 95 97 90 90 96 96 96 96 97 97 98 99 99 100 96 99 97 98 95 87 94 91 93 94 96 95 98 99 99 98 98 98 97 97 96 97 96 96 96 92 86 90 89 87 82
92 100 88 94 100 99 88 92 92 98 98 95 97 96 96 97 97 97 97 96 98 99 99 88 90 95 88 90 90 90 94 93 95 94 98 100 99 98 98 98 98 96 95 95 95 95 94 79 72 73 78 88 88 87
100 100 97 93 92 85 89 89 88 88 95 96 95 96 96 96 94 94 96 94 97 94 83 94 78 87 93 91 91 92 92 94 95 96 95 98 98 99 98 97 97 97 96 97 97 97 96 91 91 94 94 94 91 90
99 94 95 92 86 82 90 90 78 92 94 95 84 81 81 80 75 77 78 78 80 80 83 81 87 88 92 92 92 94 94 94 93 94 94 95 96 96 96 96 96 96 96 95 95 95 96 98 96 97 98 93 86 87
100 100 94 87 87 88 90 96 75 86 89 82 82 72 73 76 76 76 73 67 68 74 87 90 91 92 92 92 93 94 93 93 94 91 91 92 94 94 95 94 94 96 95 95 96 96 95 96 97 97 97 98 97 97
97 100 93 84 67 72 91 96 94 96 97 96 94 90 86 75 74 77 79 66 73 87 88 91 92 92 93 94 95 94 93 92 92 91 91 91 94 94 94 95 96 95 93 94 93 95 95 95 98 99 97 97 96 97
66 81 75 58 74 76 83 82 92 91 88 92 90 90 93 99 98 94 74 84 90 91 90 89 88 87 84 87 92 95 96 93 94 93 95 92 90 90 92 95 92 94 94 95 95 95 96 100 100 99 98 100 97 96
48 47 55 63 78 77 82 74 83 84 89 92 89 92 96 99 94 68 94 79 88 90 92 90 90 90 88 92 89 90 88 84 88 91 92 94 95 95 94 96 98 94 92 97 100 100 100 92 83 83 83 83 87 88
46 75 88 87 82 92 88 92 86 88 90 92 95 98 94 96 81 89 93 91 89 88 85 87 84 79 78 81 87 92 93 90 92 98 92 81 85 91 91 92 92 94 93 93 91 90 86 86 80 81 84 87 88 89
81 91 80 85 89 82 95 100 98 90 100 100 94 96 100 85 95 98 96 91 90 93 92 89 84 85 86 87 90 94 96 85 80 84 96 92 92 89 92 99 100 100 97 90 92 91 93 91 90 86 88 92 95 93
96 99 97 100 99 94 98 100 100 100 98 97 98 94 88 90 93 99 89 95 96 92 97 98 94 87 89 94 90 93 99 91 88 92 100 100 99 96 95 94 92 100 100 100 98 97 96 98 97 97 94 93 94 98
100 97 94 82 92 90 100 98 90 94 93 92 97 97 89 100 100 94 89 93 90 99 94 91 96 94 93 98 100 92 78 69 75 95 97 94 91 89 89 100 100 100 100 100 100 100 100 100 100 100 100 100 100 100
100 90 91 98 97 94 100 99 90 94 92 92 85 100 100 98 97 93 92 100 80 77 76 83 95 96 97 99 99 97 98 93 84 79 81 90 92 93 94 94 94 91 86 88 88 91 100 100 100 100 100 100 100 100
100 99 90 100 96 97 97 100 92 89 89 90 99 100 98 89 98 97 98 98 97 93 94 93 92 79 78 78 76 75 69 67 65 92 98 99 100 96 100 100 98 93 90 88 88 88 100 87 87 89 89 88 89 90
98 95 100 100 95 100 100 98 100 100 90 94 84 84 87 96 98 98 98 97 94 95 94 92 93 82 81 77 87 88 89 90 90 90 100 100 100 100 99 95 92 92 91 94 95 94 94 92 92 89 83 84 87 90
96 95 97 98 98 99 97 97 88 89 96 97 99 99 99 98 98 98 96 94 92 90 89 90 92 93 90 90 90 93 92 88 85 92 98 100 100 97 96 93 90 91 91 91 95 97 97 97 98 96 93 92 93 95
98 100 99 100 98 99 99 98 100 100 100 100 100 100 100 99 100 100 100 100 100 96 95 96 98 99 98 96 90 84 80 82 87 90 98 99 99 98 94 90 87 87 86 88 92 93 92 93 94 96 96 96 97 98
98 100 99 100 98 98 97 94 96 99 100 100 100 100 100 95 98 96 100 97 90 84 79 81 92 100 96 93 92 91 90 93 96 95 97 99 99 99 99 98 93 88 86 87 89 89 90 92 93 94 95 96 96 97

GFSWCAN_925_rhum_048.txt.gz
RH
94 87 86 83 84 83 87 96 94 95 95 94 89 90 100 99 98 83 81 72 64 69 78 62 48 51 47 52 56 44 58 65 68 74 67 65 76 48 44 38 59 58 65 80 56 81 68 29 29 29 24 33 25 29
99 85 91 87 84 85 88 89 95 94 91 85 88 100 98 99 92 81 98 90 86 70 97 92 85 79 75 34 39 48 37 45 48 55 62 50 92 89 43 57 40 54 46 47 44 42 32 32 24 24 28 23 31 28
98 94 88 89 90 89 89 91 86 91 81 82 100 100 98 100 90 83 100 95 80 76 65 84 87 68 84 78 48 50 39 35 46 37 55 61 84 62 91 54 40 44 48 55 52 29 33 34 26 29 28 28 27 28
98 100 98 89 89 87 87 84 88 88 97 100 100 99 98 100 99 94 92 81 60 70 80 61 81 72 75 81 67 54 37 53 47 55 60 84 85 47 57 40 52 36 50 44 44 35 44 40 36 29 35 39 38 32
98 100 98 99 100 100 100 100 100 99 100 99 98 99 100 99 94 81 77 75 61 49 89 82 66 77 75 88 67 57 57 51 68 75 87 70 50 64 71 67 57 43 44 55 49 32 41 27 29 35 39 42 40 39
80 99 100 100 96 94 93 95 96 97 98 100 100 99 98 94 79 70 96 73 80 65 77 100 66 58 68 92 73 56 57 54 59 60 69 55 58 58 88 61 36 37 37 37 36 48 50 54 49 40 41 43 43 42
81 80 98 99 100 100 98 97 100 100 96 100 100 96 91 81 70 63 64 67 74 71 76 98 89 70 64 74 80 76 64 66 59 65 67 62 72 67 93 76 41 37 38 45 56 58 52 55 51 59 53 53 56 47
90 80 85 92 99 100 96 98 99 97 99 99 96 88 78 68 66 72 99 72 82 68 74 99 92 89 63 74 97 93 96 86 73 69 73 65 67 80 77 46 41 48 55 60 59 60 60 60 60 63 62 59 60 60
96 86 77 84 92 94 96 96 92 84 84 88 96 89 76 77 76 92 97 80 88 74 98 99 100 94 80 90 95 99 92 100 81 92 76 65 72 84 56 52 52 57 61 58 65 62 62 63 63 68 66 65 65 71
100 99 89 80 75 82 82 81 84 84 79 87 85 94 96 82 84 96 97 93 85 92 95 100 94 96 93 100 97 94 100 100 100 96 84 97 72 72 76 72 68 66 64 64 72 76 74 72 70 72 72 69 73 73
98 93 92 90 86 75 79 82 83 89 85 76 87 92 82 63 93 92 97 99 100 100 98 83 76 79 92 99 100 92 98 100 100 98 95 100 98 98 90 80 73 76 69 63 60 61 62 64 71 76 82 81 80 84
96 94 97 98 92 83 82 82 83 76 81 75 91 78 80 68 78 95 98 98 100 96 98 97 95 86 98 90 96 99 100 100 100 99 100 98 100 100 97 95 88 78 74 74 69 69 71 70 72 79 86 91 94 97
90 97 100 95 98 96 96 90 86 86 68 93 92 95 94 97 99 98 96 97 99 100 99 100 100 97 97 92 100 99 100 100 98 99 95 97 97 99 100 100 98 95 92 89 87 86 89 93 94 94 96 98 98 97
82 96 100 98 94 96 99 93 76 91 98 99 99 96 99 92 92 92 94 100 100 100 100 100 100 100 100 100 100 100 100 99 98 94 94 92 96 99 100 100 100 99 99 98 98 97 97 96 96 98 98 98 97 96
84 90 90 95 95 91 90 82 71 82 82 91 79 92 87 96 91 94 95 99 100 100 100 99 100 99 100 100 98 98 98 91 85 89 92 94 97 100 99 98 97 97 97 97 97 96 97 97 95 96 98 98 98 98
72 72 98 90 89 88 78 70 83 97 90 73 79 88 85 85 88 88 91 95 99 99 100 100 96 94 92 85 79 89 76 86 88 89 89 96 98 95 96 97 97 97 96 95 95 95 95 95 94 94 97 97 98 98
79 98 88 91 92 88 80 89 94 92 87 91 94 94 95 93 94 96 96 95 96 100 95 72 84 93 71 74 80 79 87 88 89 89 91 96 96 96 96 97 97 95 93 94 94 94 93 88 77 74 79 91 94 96
100 94 92 88 70 72 81 82 88 87 92 93 92 94 93 94 94 94 92 88 90 73 68 83 60 75 84 82 84 88 86 90 92 91 92 92 93 94 95 94 94 94 93 95 95 95 95 94 88 90 91 94 91 86
100 99 94 95 88 88 94 87 62 86 89 87 80 82 84 79 68 67 69 65 63 59 60 62 74 80 87 85 88 89 90 90 90 90 90 92 93 93 94 94 94 93 92 92 91 91 93 94 93 93 94 93 91 93
100 96 91 82 78 79 84 88 64 67 74 65 59 63 64 66 65 76 73 62 56 58 71 76 84 88 86 86 87 88 88 89 87 87 87 87 91 91 92 91 91 93 91 92 93 94 89 89 92 94 95 94 91 92
96 86 74 56 61 74 79 82 94 82 78 76 73 58 60 60 74 79 75 55 72 72 80 86 88 86 86 87 87 88 88 86 85 83 86 85 90 89 89 91 91 89 87 88 87 90 90 90 93 94 94 94 95 95
96 78 69 49 67 70 68 68 71 70 65 71 73 63 76 78 77 76 54 71 76 83 82 79 79 75 75 81 83 86 89 84 86 85 89 83 82 82 85 90 85 87 87 89 88 90 90 90 92 92 94 93 90 92
49 45 63 69 76 76 76 65 74 67 75 79 71 73 76 75 66 49 75 65 76 79 83 81 82 79 79 85 81 80 77 73 74 75 75 75 73 73 72 74 74 73 72 73 74 78 84 86 87 87 87 85 83 85
46 77 80 80 71 83 77 83 66 70 74 78 77 84 82 75 59 67 77 75 80 77 74 76 72 69 68 71 72 78 70 64 67 70 65 62 66 71 73 74 78 81 79 80 83 87 89 91 91 87 88 84 85 84
77 89 77 86 77 79 91 91 87 77 88 82 81 86 84 64 77 78 78 77 80 83 81 78 71 67 70 71 68 73 72 64 63 65 71 71 71 68 70 76 84 90 92 86 86 86 89 92 90 89 86 88 90 87
96 94 90 92 87 84 88 94 94 93 87 88 90 81 72 74 79 85 74 77 81 81 86 83 79 74 72 70 68 73 79 74 65 70 79 78 76 75 73 73 71 82 98 100 98 91 87 91 92 92 89 90 94 95
91 90 80 68 72 75 87 82 74 80 87 91 87 83 75 86 87 79 75 77 75 84 89 92 78 74 74 78 85 88 83 85 82 82 87 88 92 93 91 84 87 98 100 100 100 100 99 95 94 94 93 91 94 100
80 75 86 90 83 75 88 81 81 85 83 78 68 91 86 83 82 77 76 88 86 85 91 98 97 93 91 95 99 99 100 100 100 98 99 98 100 100 100 100 100 94 99 94 100 100 100 100 98 96 96 96 98 100
90 82 74 94 85 85 88 89 85 81 77 72 83 84 84 75 82 81 89 92 97 92 87 88 96 98 97 98 100 100 96 88 73 66 68 74 77 92 100 100 100 100 100 100 100 100 100 100 100 99 100 100 100 100
90 82 81 86 90 90 92 86 88 85 77 77 69 70 72 82 93 100 96 96 93 96 99 100 100 91 88 84 91 99 100 99 100 90 78 81 93 100 100 100 100 100 100 100 100 100 100 100 100 100 100 100 100 100
84 79 84 81 87 82 82 83 80 79 80 81 79 80 83 82 92 100 100 100 100 97 94 93 99 100 97 94 87 82 84 98 83 89 94 100 100 100 100 100 100 96 100 100 100 100 100 100 100 100 100 100 100 100
89 90 84 86 89 86 88 86 88 86 87 80 87 85 88 83 87 88 100 100 100 96 97 100 98 99 96 89 78 76 78 84 93 90 95 100 100 100 100 100 98 96 100 100 100 100 100 100 100 100 100 100 100 100
90 87 86 87 89 90 87 86 83 89 86 86 88 88 87 80 85 88 96 92 99 96 96 97 97 96 92 87 95 90 88 91 94 96 95 97 98 98 95 100 100 100 91 100 100 100 100 100 100 100 100 100 100 100

GFSWCAN_925_rhum_054.txt.gz
RH
91 95 98 90 86 85 81 86 84 85 78 95 100 100 100 100 96 97 91 76 75 90 67 54 69 65 51 47 58 39 50 60 86 71 63 57 61 41 32 24 58 68 83 90 74 82 79 26 24 31 30 30 25 23
98 98 92 87 87 83 84 88 86 92 78 98 100 82 90 98 93 98 88 76 72 88 86 78 75 86 71 48 56 43 49 49 62 92 52 53 77 69 40 52 31 64 52 72 53 51 46 38 32 28 30 32 30 26
97 98 91 83 84 90 86 92 92 94 86 92 96 96 100 98 96 93 89 82 80 95 93 78 69 77 70 67 43 52 46 52 73 57 45 48 60 38 77 60 40 37 35 51 51 34 36 42 41 35 28 32 25 25
99 98 90 83 88 89 98 92 97 100 95 98 97 92 99 100 98 98 85 76 71 85 98 78 70 58 60 61 53 58 60 40 51 53 56 64 72 35 60 46 44 36 31 43 40 36 35 33 29 41 34 33 28 26
98 99 91 88 89 88 93 95 88 99 96 99 99 97 99 99 96 88 81 76 73 78 84 92 50 41 51 56 54 59 64 62 81 79 84 67 47 49 49 48 47 25 27 40 52 35 41 38 41 31 30 29 31 31
100 100 100 95 92 88 88 94 100 96 97 94 99 97 95 94 85 89 97 95 81 76 78 81 56 46 42 53 58 54 68 75 75 86 79 50 34 44 80 51 31 25 22 21 31 28 33 43 40 38 41 43 34 35
100 98 99 98 89 88 89 91 95 96 97 99 100 95 92 85 73 77 82 81 77 73 60 69 68 47 38 45 58 59 56 83 84 72 67 53 46 42 74 63 30 27 27 32 39 48 43 42 47 48 48 42 39 34
100 100 94 100 99 90 91 95 100 100 100 100 100 94 84 73 68 76 76 70 58 48 46 64 84 74 49 68 78 59 68 69 80 84 70 66 51 64 69 48 53 54 52 36 44 41 49 48 47 42 44 45 49 43
100 100 98 95 99 100 100 100 100 98 94 88 87 87 79 82 90 79 65 55 58 64 67 92 91 97 66 83 72 74 70 98 77 86 69 62 69 85 94 94 88 80 71 64 56 54 51 52 52 47 51 52 54 57
99 100 100 100 100 100 98 96 95 91 89 78 65 69 95 88 68 60 63 65 64 69 68 91 66 85 93 95 94 87 82 99 78 71 55 81 98 98 92 88 94 87 80 65 66 68 66 64 58 54 53 53 55 59
96 98 100 100 100 100 95 90 87 81 74 62 75 96 88 88 88 88 90 85 76 90 73 69 69 82 96 100 100 92 97 97 100 80 85 79 95 94 96 95 94 89 81 76 67 68 66 62 59 62 73 80 87 88
92 89 92 91 83 85 90 87 84 80 80 76 71 73 82 90 99 100 97 100 79 74 83 85 80 73 97 95 100 99 100 100 100 99 100 95 94 94 95 94 90 91 88 88 85 85 85 86 86 93 95 96 95 95
84 82 82 83 82 80 75 68 67 77 81 73 61 92 99 90 96 96 91 80 78 99 100 100 99 100 94 93 100 99 100 100 99 98 94 94 90 95 100 95 86 85 87 88 90 90 90 93 94 93 95 97 96 96
81 90 88 82 78 75 69 72 64 73 75 87 98 88 93 87 91 94 94 96 100 100 100 100 100 100 100 100 100 100 100 99 97 94 93 92 96 97 96 98 90 96 97 96 97 96 96 96 97 98 98 98 96 95
83 81 76 71 76 83 81 78 77 67 57 79 69 89 88 96 91 92 90 97 98 99 100 100 100 97 99 99 98 98 94 88 88 91 93 95 96 96 95 95 95 96 96 96 96 95 96 95 94 96 97 97 96 96
81 83 92 75 75 76 80 70 62 59 58 66 74 84 83 81 86 86 85 88 85 92 98 100 99 88 88 86 86 94 86 89 90 90 92 93 95 95 95 96 96 96 95 95 95 95 95 94 94 96 96 97 97 97
79 82 98 88 76 86 85 69 56 58 65 74 90 86 87 79 91 91 92 89 92 98 97 82 80 93 77 81 89 88 90 92 92 91 92 94 94 95 96 95 96 94 94 94 94 94 96 96 95 89 91 96 96 97
90 99 90 79 82 72 58 60 61 62 75 82 85 92 87 90 92 93 94 93 90 84 78 88 77 83 92 88 86 92 92 94 91 91 93 94 94 94 94 94 95 94 94 95 96 96 96 93 89 94 94 97 97 97
98 94 95 88 80 70 70 72 60 76 85 90 89 91 93 93 92 94 95 93 90 86 87 89 90 91 93 93 94 94 95 93 92 92 93 94 95 94 94 94 94 94 94 94 92 92 93 94 95 96 96 92 94 97
97 96 75 75 73 62 79 86 60 76 85 83 84 74 72 75 72 74 73 67 67 76 83 88 91 93 92 93 92 92 95 93 87 88 90 91 93 91 94 92 93 93 90 86 91 91 86 89 93 95 96 97 93 93
78 73 65 62 62 65 71 67 66 68 73 72 62 62 72 69 73 77 74 58 77 76 85 89 92 91 90 92 92 88 90 83 91 90 89 89 93 91 90 90 87 85 84 84 80 80 82 80 80 85 86 87 85 93
81 64 78 69 72 67 69 61 60 57 58 61 58 58 68 77 77 70 58 76 83 87 86 82 83 75 75 82 84 84 85 83 85 83 82 77 80 79 78 74 71 73 72 74 76 80 76 83 84 80 84 89 89 80
62 63 72 77 92 86 83 51 73 52 69 62 56 62 66 69 56 45 70 68 83 85 75 74 75 66 61 59 59 59 59 58 60 62 63 65 65 68 69 70 71 72 72 68 69 73 79 76 79 80 80 77 77 78
57 92 93 89 78 89 79 76 51 58 60 62 62 70 68 65 51 60 78 82 76 61 68 83 68 58 56 56 57 56 54 58 61 65 61 58 61 63 63 64 68 74 72 71 76 79 82 82 79 79 80 78 79 77
72 85 85 84 78 73 74 75 70 64 70 64 68 71 70 56 66 69 76 82 76 84 75 67 68 62 65 63 58 58 56 56 58 58 60 68 67 59 63 69 72 74 80 81 80 81 78 83 79 77 79 82 78 81
85 77 73 73 72 72 70 76 72 70 68 72 76 68 68 64 67 79 79 87 84 81 86 87 76 65 62 58 59 64 69 63 60 62 65 66 69 70 66 67 69 79 88 94 87 84 80 80 80 79 80 86 86 84
79 80 64 50 56 60 70 66 60 67 71 74 70 69 65 72 78 78 76 78 76 80 80 81 65 62 62 65 70 75 76 79 72 69 71 76 81 83 87 83 85 93 94 97 97 92 88 86 85 84 85 85 90 91
66 66 80 74 72 63 71 68 69 72 72 61 60 77 78 76 84 86 76 80 80 77 76 78 83 80 81 83 87 86 86 93 83 81 89 85 86 88 93 100 93 94 99 98 100 99 97 95 92 91 91 90 91 93
73 62 65 86 69 71 76 73 73 67 65 64 70 74 73 76 77 77 80 81 82 80 78 81 86 86 86 87 91 90 89 87 69 61 62 69 78 91 92 94 95 98 97 97 96 95 99 98 98 98 98 96 94 97
78 60 70 74 81 82 87 73 84 74 63 63 60 65 72 74 90 86 81 85 89 88 90 88 90 92 87 91 85 89 95 97 99 92 80 81 87 93 98 97 97 99 98 97 96 94 96 96 96 97 93 89 89 96
63 63 66 68 80 82 80 77 73 71 73 79 74 76 78 80 81 89 89 88 88 90 87 84 86 87 84 80 82 74 91 100 92 86 97 96 95 98 99 99 100 100 100 99 98 96 95 93 91 90 88 87 88 89
70 68 72 78 84 78 87 85 74 76 80 76 81 74 81 83 81 82 91 92 86 89 87 86 87 92 96 98 100 76 87 97 100 100 100 100 100 100 100 100 100 100 99 99 98 98 96 94 93 91 90 92 92 94
76 76 75 76 81 76 78 71 67 73 70 72 77 76 81 85 86 87 98 100 99 94 89 97 98 100 98 100 99 94 98 99 79 82 81 78 78 70 83 100 100 100 100 100 100 97 96 94 94 96 96 97 98 100